Location: Stoke Bliss
(52.2667°N, 2.5167°W)
Time: 14:46:38
(UTC+00:00)

Cosmos 2322 - Pass Details

Date: 03 March 2021
Orbit: 841 x 853 km, 71.0° (Epoch: 13 April)

Event Time Altitude Azimuth Distance (km) Brightness Sun altitude
Rises 19:44:23 0° 188° (S) 3,411 6.8 -17.7°
Reaches altitude 10° 19:46:54 10° 183° (S) 2,479 6.0 -18.1°
Maximum altitude 19:52:20 47° 111° (ESE) 1,120 3.9 -18.9°
Drops below altitude 10° 19:57:47 10° 39° (NE) 2,492 5.9 -19.7°
Sets 20:00:19 0° 34° (NE) 3,431 6.7 -20.0°
